Location: Newark
(51.3318°N, 0.0053°E)
Time: 02:27:04
(UTC+00:00)

Envisat - Pass Details

Date: 29 January 2022
Orbit: 764 x 765 km, 98.2° (Epoch: 28 May)

Event Time Altitude Azimuth Distance (km) Brightness Sun altitude
Rises 04:06:09 0° 22° (NNE) 3,243 6.7 -33.6°
Reaches altitude 10° 04:08:45 10° 33° (NNE) 2,312 6.0 -33.2°
Maximum altitude 04:13:11 29° 93° (E) 1,369 4.8 -32.5°
Drops below altitude 10° 04:17:35 10° 154° (SSE) 2,297 5.6 -31.8°
Sets 04:20:09 0° 165° (SSE) 3,219 6.3 -31.4°
